Theta_e
347 346 338 333 332 333 335 339 343 343 343 343 343 343 342 340 338 339 338 337 339 340 338 336 335 335 337 339 340 342 343 343 342 342 343 343 343 343 342 343 343 343 342 341 341 339 338 337 337 339 340 339 340 338 337 338 338 338 337 335 330 328 328 329 331 331 330 329 330 331 330 331 331 332 332 333 333 333 333 333 332 331 331 331 331
347 346 341 336 332 332 335 339 343 343 342 343 342 341 340 339 338 338 338 339 341 340 337 336 335 336 337 338 341 342 343 343 342 342 342 343 342 342 343 343 343 342 340 339 338 337 337 338 339 340 340 339 339 337 337 337 337 337 335 332 328 328 329 330 330 329 328 326 327 328 329 329 329 330 331 332 332 332 332 332 331 330 330 330 330
346 346 344 339 334 331 335 339 342 342 342 342 341 339 338 339 339 339 340 341 340 339 337 336 335 335 336 338 341 342 343 342 342 342 343 342 342 343 342 341 340 339 338 338 338 338 339 340 340 340 339 339 338 336 337 338 337 337 335 331 325 326 330 331 331 329 329 327 326 327 327 327 327 327 328 330 330 330 331 331 330 330 330 330 330
346 347 344 340 335 330 333 337 341 342 341 342 341 339 339 340 340 340 341 340 339 338 336 336 336 336 337 340 342 343 343 343 342 343 342 342 342 340 338 337 338 338 338 338 339 340 340 341 340 339 339 338 337 336 337 338 337 336 333 326 321 326 331 332 333 331 329 329 328 328 327 326 327 326 326 327 327 327 329 329 329 329 330 330 330
346 346 343 340 338 333 331 335 339 341 341 342 342 341 341 341 341 342 341 339 338 337 337 337 338 339 341 342 342 343 343 344 343 342 342 341 339 337 336 337 338 338 338 339 340 340 340 340 338 338 337 336 336 337 337 336 336 333 325 318 320 328 332 333 335 333 330 330 329 327 327 327 327 327 326 326 326 327 327 327 327 328 329 330 330
346 345 343 342 343 337 332 334 336 339 340 340 341 341 342 342 342 342 341 338 337 337 338 339 340 341 342 342 343 343 343 343 341 340 339 337 336 337 338 338 338 338 338 339 339 340 340 336 333 332 332 332 333 336 335 335 333 326 319 319 324 329 331 333 334 333 332 333 332 327 327 327 327 328 327 327 328 328 328 327 327 328 329 329 329
346 345 344 344 345 339 332 332 332 335 338 339 340 341 341 341 342 341 340 338 338 338 339 339 341 341 341 343 343 342 339 336 334 335 335 336 338 339 338 338 338 339 339 339 340 340 336 331 328 326 327 328 329 332 332 332 329 321 320 324 327 330 330 331 332 333 333 334 333 328 327 327 327 328 327 328 328 329 328 329 328 328 329 328 328
345 345 344 344 344 337 332 331 331 332 335 336 337 339 340 341 340 339 339 338 338 339 339 340 341 341 341 340 338 334 331 330 331 334 337 339 339 338 338 338 339 339 340 339 340 338 333 331 329 327 327 326 326 327 327 327 324 320 323 327 329 330 330 331 331 333 333 332 330 328 328 328 328 328 327 327 328 328 328 328 328 328 328 328 328
345 345 344 344 340 334 334 334 335 336 336 336 335 336 336 337 338 337 337 337 338 339 341 341 341 339 336 333 330 329 331 334 336 338 339 339 338 338 338 339 340 341 341 339 339 338 335 335 331 327 327 326 325 325 325 324 322 321 324 327 330 330 331 332 332 332 332 331 329 328 328 328 328 327 326 326 327 327 327 327 327 327 327 327 327
344 344 344 343 338 336 338 338 338 339 339 338 338 337 336 336 337 337 337 337 339 340 341 342 339 334 329 327 326 328 335 339 339 339 339 338 338 338 339 340 341 341 341 340 339 339 338 337 332 328 327 327 327 325 324 323 321 323 326 329 330 331 331 332 332 330 329 329 328 329 329 328 327 327 325 324 325 326 325 325 326 326 326 326 325
343 343 343 343 338 339 341 339 339 339 340 340 340 341 340 340 340 339 338 339 339 340 342 341 335 330 328 325 322 326 335 340 339 339 338 339 338 339 340 341 341 340 340 339 339 339 338 337 333 330 328 328 328 326 324 323 323 325 328 330 330 330 331 331 333 330 327 327 327 328 329 328 327 328 326 323 324 325 325 325 325 325 325 324 323
343 343 343 341 339 340 340 339 339 338 339 341 342 343 342 342 343 342 340 340 340 341 341 338 333 332 331 325 321 325 335 340 339 339 339 339 338 339 341 340 340 340 340 339 339 339 338 335 332 330 329 329 329 328 325 324 326 328 329 329 329 329 329 329 331 329 326 327 327 327 327 327 328 328 327 325 325 326 326 326 325 324 323 322 322
342 343 342 340 339 341 340 339 338 337 338 340 342 343 342 343 343 342 341 341 341 342 339 337 337 337 334 327 322 324 333 338 339 339 338 339 338 339 340 340 340 340 339 339 338 337 335 332 330 330 330 330 329 329 326 324 326 329 329 328 328 328 327 327 328 328 327 329 329 328 327 326 327 328 327 327 326 325 324 324 324 323 321 321 322
341 342 343 341 340 340 340 339 337 337 338 340 342 343 343 343 342 342 342 342 342 340 338 338 340 339 334 327 324 323 329 335 338 337 338 338 338 339 340 339 339 339 338 336 335 333 332 330 330 330 330 330 330 330 327 325 326 328 328 327 328 329 328 328 329 328 329 330 330 329 328 326 327 328 328 327 325 324 323 323 323 322 321 320 321
341 341 342 342 341 340 340 338 338 338 339 341 343 343 343 342 342 342 342 342 341 339 338 339 340 339 335 328 325 324 327 333 336 336 336 338 338 339 340 339 338 337 335 333 332 331 330 329 329 329 329 330 330 330 327 325 325 326 326 327 329 330 330 330 330 329 330 332 331 330 328 326 327 328 328 327 326 324 323 322 322 322 321 320 320
342 341 342 343 342 341 340 338 338 339 340 342 342 342 342 342 342 342 341 341 340 339 339 341 341 339 335 330 325 324 326 331 335 336 337 337 337 338 339 338 336 334 333 333 331 330 330 329 329 329 329 329 330 329 327 324 324 326 327 328 329 330 330 330 329 329 331 332 332 330 327 325 325 326 326 326 326 325 324 322 321 321 321 321 321
343 342 342 342 342 341 340 339 339 340 341 341 341 341 342 342 342 341 341 340 339 340 341 341 341 339 336 331 326 324 325 328 332 336 337 338 337 338 338 336 334 333 332 332 331 330 329 328 328 328 328 329 329 328 326 324 323 326 327 327 329 329 330 330 328 328 330 332 331 330 328 326 325 325 325 325 325 325 324 323 322 321 321 321 322
342 342 342 341 342 342 341 340 338 339 341 341 341 340 341 341 341 341 340 340 340 340 341 341 340 339 336 333 328 324 324 326 329 333 336 338 337 337 337 333 330 332 332 331 330 328 327 326 327 327 327 328 328 326 325 324 323 326 327 327 328 328 331 331 328 329 331 332 330 329 328 327 326 326 325 325 324 324 324 323 323 322 321 321 322
341 342 342 340 340 340 341 340 339 341 342 341 342 341 341 341 340 341 341 340 341 340 341 340 339 338 336 334 329 326 324 324 326 330 334 336 336 336 336 330 327 331 332 331 329 327 326 326 326 326 327 328 327 325 325 325 324 326 327 328 328 329 331 330 328 331 333 332 330 329 328 327 326 325 326 326 325 324 324 324 323 322 322 322 322
342 342 341 339 339 340 339 339 340 341 342 342 341 340 340 341 340 340 341 341 341 341 340 340 339 338 337 335 331 329 326 324 324 327 329 331 333 336 334 328 327 332 332 329 327 326 326 326 326 326 327 327 326 325 326 326 326 327 328 328 328 328 329 329 329 330 332 331 330 328 326 326 325 325 326 326 325 323 324 324 323 322 322 322 322
342 341 340 340 340 339 339 339 340 340 342 342 340 340 339 340 340 340 340 340 341 340 340 340 339 339 338 336 333 331 327 326 326 325 325 327 332 334 329 325 330 332 330 328 326 326 326 325 326 326 326 326 325 325 327 328 327 327 326 327 327 328 329 329 327 327 330 331 329 326 324 325 325 326 325 325 324 324 325 325 324 323 323 322 322
341 339 338 339 339 339 339 340 341 340 340 341 340 339 339 339 339 339 339 339 340 339 339 339 339 340 339 337 336 334 331 332 332 329 327 329 331 329 326 327 331 332 330 327 325 326 325 325 325 325 325 324 324 325 327 328 328 328 328 329 329 329 329 328 326 329 330 331 329 326 325 324 324 326 325 324 324 324 324 324 323 324 323 323 322
339 336 336 338 338 338 340 340 342 341 339 340 340 339 338 339 338 339 339 339 339 338 338 340 341 341 340 339 339 338 337 337 336 335 331 327 327 328 330 331 331 332 330 326 325 325 326 325 325 324 324 325 327 328 327 328 329 329 330 330 330 328 327 326 328 329 330 330 329 328 327 324 323 325 325 324 324 324 324 323 323 322 321 322 323
338 337 337 338 338 339 340 340 341 342 340 340 339 339 339 339 338 339 340 339 339 339 339 341 341 341 341 340 340 340 339 339 339 337 332 326 326 331 334 333 331 332 329 326 325 325 326 327 328 327 326 329 334 334 332 331 330 331 333 331 329 329 328 326 328 329 329 328 328 327 327 324 322 324 326 325 324 324 324 323 323 321 320 321 323
339 338 338 338 338 339 339 338 339 339 340 341 341 341 341 340 338 338 339 339 339 340 341 341 340 339 340 339 339 340 340 340 339 338 334 326 325 332 335 333 331 331 329 326 325 325 326 328 330 331 332 334 337 336 335 335 334 333 334 333 331 330 329 328 328 329 329 329 328 327 325 323 322 324 326 326 326 325 323 324 323 321 321 323 323
337 339 339 338 339 338 338 337 337 337 338 340 341 340 340 340 339 338 338 339 339 340 341 341 340 339 339 339 338 339 341 340 339 339 336 330 328 329 332 334 332 330 330 328 327 327 327 329 332 333 335 336 336 335 335 335 335 334 333 331 331 330 330 328 327 329 330 329 327 325 324 324 323 325 327 327 327 325 323 324 324 322 321 321 323
335 337 338 338 338 338 337 337 336 337 337 338 338 337 338 338 338 338 337 337 337 338 338 339 340 339 337 338 338 338 340 341 339 338 338 336 333 328 329 334 334 332 330 331 330 329 330 331 332 334 335 335 335 334 333 333 333 333 332 331 331 331 330 329 328 329 329 328 325 324 325 323 323 326 327 327 327 326 324 324 324 324 322 319 321
335 336 337 338 338 338 338 337 336 337 336 337 338 338 338 337 337 337 337 335 335 336 336 337 338 339 337 337 337 338 339 340 339 339 339 338 337 332 330 332 333 333 331 333 332 329 331 331 331 332 333 333 334 332 332 332 332 331 331 332 332 331 330 330 330 330 329 327 325 325 325 322 324 327 327 327 327 326 325 324 324 325 324 320 321
334 334 336 337 336 338 338 337 338 338 337 336 337 337 336 336 335 336 335 334 334 335 335 337 337 337 338 337 337 336 338 339 339 340 339 338 338 336 333 331 331 332 332 334 333 330 331 331 330 331 332 333 333 333 332 331 331 331 330 331 331 331 331 331 330 331 330 329 327 325 324 322 324 327 327 327 328 327 325 325 325 326 325 322 321
334 334 335 336 335 336 337 337 337 337 336 336 336 336 334 334 333 333 333 333 333 334 334 336 337 336 337 338 337 335 337 338 338 339 338 337 336 334 333 331 330 330 332 335 333 331 331 331 330 331 332 333 333 333 332 332 331 331 330 330 331 331 331 332 331 331 332 331 329 327 325 323 323 326 327 327 327 327 326 326 326 327 326 323 322
334 334 335 336 335 334 335 336 333 332 334 333 333 333 332 332 334 334 333 334 333 333 335 335 336 336 336 337 336 336 336 337 337 337 337 336 335 333 332 331 329 329 332 333 332 332 333 332 332 332 332 333 334 334 333 334 332 330 330 328 329 331 331 332 331 331 332 333 332 329 327 325 322 324 326 327 327 327 327 327 326 328 327 324 324
334 333 334 334 335 334 335 336 331 330 330 328 328 330 330 332 334 334 334 335 333 333 334 334 335 336 336 337 337 336 336 336 337 336 336 336 335 335 333 331 330 329 331 332 332 332 333 333 333 333 334 335 335 334 334 335 333 330 330 327 327 331 331 331 331 331 332 333 333 332 330 327 324 323 324 325 327 327 327 328 326 328 328 324 325
334 334 335 335 334 335 335 333 331 329 329 329 327 326 328 331 332 332 333 333 334 334 333 334 336 335 336 338 337 336 336 336 336 336 335 336 336 335 334 332 330 328 330 332 332 333 333 334 334 335 335 336 336 335 334 334 334 331 329 329 329 331 331 331 331 331 332 333 333 334 332 330 327 325 323 323 325 326 328 329 327 328 328 325 326
333 337 337 337 335 335 335 331 329 329 329 331 328 326 328 329 330 331 331 332 334 335 334 334 335 335 336 337 335 336 337 335 336 336 335 335 336 336 335 334 332 330 331 332 333 334 335 335 336 336 336 336 337 336 335 334 334 333 330 330 331 331 331 331 332 332 332 333 333 334 333 333 331 328 326 324 324 325 326 327 328 329 329 327 327
335 336 334 333 332 334 336 333 333 334 331 331 331 329 329 327 328 329 329 332 335 335 335 334 335 336 335 335 337 338 337 335 335 336 336 335 336 337 336 336 335 335 335 335 335 335 336 337 336 337 336 336 336 335 335 335 334 333 331 331 332 332 332 332 332 332 333 333 333 334 334 333 334 332 330 328 325 325 324 325 327 329 329 329 329
335 333 329 329 326 331 337 334 334 338 335 332 332 332 331 329 328 328 328 330 333 333 334 335 335 336 336 336 338 338 337 336 336 336 335 335 336 336 337 337 336 336 336 336 337 337 337 337 337 337 337 336 336 337 336 335 335 334 332 332 333 333 334 334 332 332 332 333 333 334 334 333 334 334 333 332 330 328 326 325 325 326 327 328 328
333 329 328 327 322 328 339 335 332 336 334 331 332 334 334 332 330 329 329 328 330 331 332 334 335 336 337 338 337 335 337 338 337 336 334 335 335 335 337 337 336 337 337 338 338 338 336 337 339 338 338 338 337 339 337 334 335 335 334 334 334 335 335 335 335 334 333 332 333 334 335 334 334 335 334 334 333 332 330 328 327 326 326 327 327
334 329 328 331 329 333 340 336 330 330 330 329 331 335 336 335 334 332 331 331 331 330 331 333 335 336 337 337 337 336 335 338 339 337 334 335 336 335 336 337 337 337 338 338 340 339 338 337 339 338 338 340 340 340 339 336 337 335 334 334 334 336 337 336 337 337 336 334 334 335 335 336 335 335 335 334 335 335 333 332 331 329 328 327 327
335 331 330 333 335 337 339 337 333 331 329 328 329 335 338 337 337 336 335 335 333 332 331 332 334 335 337 337 337 336 335 337 337 337 336 338 339 337 336 337 337 337 336 338 339 340 339 338 339 338 337 339 340 339 338 337 339 338 337 336 335 336 337 337 337 337 338 336 336 335 335 336 336 336 336 335 335 336 335 335 333 332 331 331 330
335 334 333 335 336 338 340 340 338 336 334 333 333 336 339 338 338 337 337 336 335 333 332 331 332 333 336 337 337 337 336 337 336 336 338 339 341 338 337 338 336 336 336 337 339 339 339 338 339 339 336 336 336 336 336 336 337 339 339 337 336 336 336 336 337 337 338 337 337 336 335 336 336 336 336 336 337 337 337 336 335 334 334 334 333
338 338 337 336 337 339 341 342 340 339 338 338 337 338 339 338 338 338 337 336 335 335 334 332 332 332 334 336 337 337 337 337 337 337 336 338 340 338 337 338 337 336 336 337 338 338 339 338 338 339 337 336 336 336 336 336 338 339 338 337 336 336 336 337 337 338 338 338 336 336 336 336 337 336 336 337 337 337 337 337 337 336 336 335 335
339 338 335 332 331 333 338 341 341 340 339 339 339 339 339 339 338 338 337 337 335 335 335 333 332 333 335 336 337 337 337 337 337 337 335 335 337 336 336 337 337 337 338 337 338 339 339 338 338 339 338 336 336 336 336 337 338 337 336 337 338 337 337 336 336 338 339 338 337 336 336 336 336 336 336 337 337 337 337 337 338 338 337 337 337
338 334 333 331 330 330 333 337 339 340 340 339 340 340 340 339 339 338 337 337 335 334 335 334 334 334 335 337 336 335 337 337 337 337 337 335 335 334 334 334 335 336 337 338 338 339 339 338 338 337 337 336 336 336 337 339 338 335 336 339 341 341 341 339 338 339 338 337 337 337 336 336 336 335 335 336 336 337 337 337 338 338 338 338 338
337 335 334 335 334 333 333 336 338 339 341 341 341 341 341 340 340 339 337 336 335 334 335 335 335 335 334 337 336 336 336 336 337 337 337 337 335 334 333 334 335 335 337 338 338 339 339 338 337 335 335 336 336 336 337 339 338 338 340 341 340 341 343 342 341 340 336 334 335 335 336 336 335 335 335 335 336 337 337 337 338 338 339 339 338
337 336 335 335 335 335 336 337 338 340 341 341 341 341 341 341 341 340 338 336 335 333 333 335 336 335 335 336 336 336 336 336 337 337 337 337 335 334 335 335 335 334 335 337 337 337 337 338 337 334 335 336 336 336 337 339 338 338 340 341 340 342 343 341 340 341 337 333 333 334 334 335 334 336 336 336 336 337 337 337 338 338 339 339 339
337 336 335 334 334 336 338 340 340 342 342 342 342 341 341 341 341 340 339 338 336 333 332 335 337 336 336 336 336 335 335 335 336 336 336 336 335 334 334 335 335 334 334 335 335 335 335 336 335 333 334 335 336 337 338 338 338 338 338 339 340 341 342 339 339 343 340 336 334 333 332 334 335 336 337 338 337 338 338 338 339 339 339 340 340
337 337 336 336 336 339 341 342 342 343 342 342 342 341 341 341 341 341 340 338 338 335 333 335 337 337 337 337 336 335 335 335 336 336 336 337 336 334 333 334 336 335 335 335 335 335 335 335 333 333 335 335 336 338 338 337 338 339 339 339 339 338 339 339 340 342 342 340 337 334 333 334 337 337 337 337 337 338 338 339 340 340 339 340 340
337 338 338 338 338 341 343 342 343 344 343 343 341 340 342 342 341 342 341 339 338 336 335 336 337 337 338 339 337 335 333 334 336 337 337 337 337 336 334 334 335 335 335 335 336 336 336 336 334 336 337 336 337 338 339 339 339 339 337 338 338 337 337 338 339 340 340 339 338 338 337 336 339 340 338 336 336 337 336 336 338 338 338 340 340
339 339 340 341 341 342 343 343 344 344 344 342 340 340 342 342 342 342 342 341 339 337 336 337 337 338 340 340 339 338 336 335 335 337 338 337 338 337 336 334 335 336 335 335 336 337 337 336 336 337 337 337 337 337 338 339 339 337 336 337 338 337 338 338 338 338 337 338 338 339 339 338 340 340 337 336 336 336 335 335 336 336 338 340 340
340 340 341 342 343 343 343 343 344 343 343 342 341 341 342 342 342 342 342 341 341 340 339 338 338 339 340 340 340 340 340 338 338 338 338 338 338 338 338 336 336 337 337 336 337 338 338 337 337 338 337 337 338 337 337 338 338 337 337 339 339 339 340 339 340 338 336 337 337 338 338 339 341 339 336 336 335 333 333 333 334 334 336 337 338
341 341 341 343 344 344 344 343 343 342 343 342 342 342 342 342 342 341 341 341 341 341 340 339 339 340 340 341 340 340 340 340 340 340 339 338 338 338 339 339 338 338 339 338 337 338 338 338 339 339 338 338 339 339 338 338 338 336 336 338 339 340 339 339 340 340 338 338 338 338 337 338 341 340 337 336 334 332 331 331 332 333 334 336 337
Wind_Speed
13 14 15 14 14 12 12 12 11 11 11 10 11 11 12 13 13 14 14 14 16 15 14 14 13 12 12 12 12 12 13 14 14 15 16 16 16 16 16 16 15 14 14 14 14 13 14 14 14 15 16 17 17 16 17 18 17 17 18 18 20 21 20 20 20 22 23 23 23 21 20 20 19 18 19 19 18 17 17 18 19 20 20 19 18
15 15 15 14 13 12 12 12 12 12 11 11 12 13 13 14 14 14 15 16 15 15 14 14 13 13 12 12 12 13 14 15 15 16 17 17 16 15 15 14 14 13 13 14 14 14 14 14 15 15 16 17 16 16 17 17 16 16 17 19 20 20 20 19 20 22 23 24 25 24 22 20 19 18 18 19 19 18 18 19 19 19 19 18 17
16 15 14 14 13 12 12 12 12 12 12 12 13 13 13 14 14 15 16 16 15 15 14 14 13 13 12 12 12 13 15 15 16 16 16 15 14 14 13 13 13 14 15 15 15 15 15 15 16 16 16 16 16 16 17 16 15 15 14 16 17 17 18 18 20 23 24 26 27 26 23 20 19 17 16 17 18 18 19 19 19 19 18 17 16
15 16 15 14 13 12 12 12 12 12 12 13 14 14 13 14 14 16 16 16 15 15 15 14 13 12 12 12 13 14 15 15 15 14 14 14 13 12 13 14 15 16 16 16 16 15 16 16 16 16 15 15 14 15 16 15 14 13 11 14 15 16 16 15 18 20 23 26 27 25 21 20 19 17 16 15 16 16 17 18 18 18 17 16 16
16 17 16 15 13 13 13 12 12 13 13 13 15 14 14 14 15 16 16 16 15 15 15 14 13 12 12 13 14 14 14 13 13 13 13 13 12 13 14 16 17 16 16 15 16 16 16 16 16 15 15 14 13 14 14 13 12 10 11 15 16 15 14 12 13 14 19 22 22 23 21 20 19 18 17 16 15 15 16 15 15 15 16 16 16
15 16 16 15 13 12 13 13 13 13 14 14 15 14 14 14 15 15 15 15 15 15 14 14 13 14 14 14 14 13 13 12 12 13 12 13 14 15 16 16 16 15 15 16 16 16 16 16 16 15 14 13 14 14 13 12 11 11 14 18 17 15 15 12 10 10 11 10 13 21 21 19 18 16 16 15 15 15 16 16 15 15 16 15 14
15 15 15 15 13 13 13 13 13 13 14 14 15 14 14 14 14 15 15 15 14 14 13 13 14 15 15 14 13 12 12 12 12 13 14 15 15 16 15 15 14 14 15 16 17 16 17 17 16 16 15 15 14 14 13 12 12 16 19 19 17 15 13 11 9 7 4 3 7 18 20 18 17 16 15 15 15 15 16 17 16 16 16 14 13
17 16 15 14 13 13 14 14 14 13 13 14 14 14 14 14 14 14 14 14 14 14 13 14 16 16 15 13 13 12 12 13 15 16 16 16 16 15 14 13 13 14 15 16 17 17 17 17 17 17 17 16 15 15 14 13 14 18 19 17 15 12 11 9 7 4 3 6 11 16 18 17 16 15 14 14 14 14 16 17 16 16 16 14 15
16 16 15 15 14 16 16 15 14 13 13 13 14 13 14 13 13 14 14 14 13 14 15 16 17 16 14 13 13 13 15 15 16 16 15 16 15 14 13 13 13 13 14 15 16 16 16 16 16 17 17 16 16 16 15 15 16 18 17 16 14 12 11 10 11 12 12 16 19 18 18 19 16 15 14 13 14 14 16 17 16 16 16 15 15
14 15 14 15 17 18 17 16 14 13 12 12 13 12 13 13 13 13 13 14 13 14 16 17 17 15 14 14 14 15 17 16 16 16 15 15 14 12 12 12 13 13 13 15 15 15 15 15 15 16 16 16 16 16 16 15 16 16 15 15 13 11 9 9 11 12 13 17 19 18 19 18 17 16 14 13 14 14 15 16 15 15 15 15 14
13 14 14 16 18 18 17 16 15 13 13 12 12 12 13 13 14 14 14 14 14 16 17 17 17 16 14 14 14 16 18 17 16 16 15 14 12 11 12 12 13 14 14 14 14 14 14 14 15 15 15 15 15 16 15 15 15 15 14 13 11 9 8 9 9 9 13 17 17 18 19 17 16 16 16 15 14 14 14 14 14 13 14 13 12
14 15 15 17 18 17 17 16 15 14 13 12 12 11 12 13 13 14 15 15 15 17 18 17 17 16 15 15 15 17 19 18 17 16 15 14 12 12 13 13 14 14 13 14 13 13 13 14 14 13 14 13 13 14 14 14 14 13 13 12 10 9 9 9 10 11 15 18 20 19 19 17 15 15 15 15 14 13 13 12 12 12 12 12 12
16 15 16 18 17 16 16 16 15 14 13 12 11 11 11 12 13 15 16 16 17 19 19 17 16 16 15 15 15 17 19 18 18 16 16 14 11 13 13 13 14 14 13 13 13 13 14 14 14 13 13 12 12 13 13 13 13 12 11 10 10 9 9 10 11 13 16 18 20 19 17 17 15 14 13 13 12 12 12 12 12 12 11 11 12
14 15 17 17 16 16 15 15 14 13 12 12 10 11 11 12 14 16 17 17 20 21 20 18 16 16 15 15 15 16 18 18 18 16 16 14 11 12 13 13 14 14 13 13 13 14 14 14 13 13 12 12 11 12 12 12 12 11 11 10 10 9 9 9 9 13 15 15 16 16 17 17 14 12 12 12 11 11 11 11 11 12 11 11 11
15 15 16 16 16 15 15 15 13 13 12 11 11 12 12 13 16 17 17 19 21 21 19 18 16 16 16 15 15 16 17 18 17 16 16 14 12 12 13 13 13 13 12 12 14 14 14 13 12 12 11 11 11 11 11 11 12 11 11 11 10 9 9 8 9 12 15 15 15 16 15 15 14 12 12 13 12 12 11 11 11 12 13 12 10
17 16 16 15 16 15 15 14 13 13 12 11 11 12 13 15 16 17 19 21 21 20 18 17 16 16 16 15 15 15 17 19 19 17 16 13 12 13 13 12 12 11 11 12 13 13 12 11 10 10 10 10 10 11 11 10 11 11 11 10 9 10 10 11 11 11 14 17 16 14 14 15 14 12 12 12 11 11 11 11 11 11 12 12 10
17 17 17 16 16 16 15 14 13 13 12 11 11 12 14 15 17 18 20 20 20 19 17 16 16 16 16 15 15 15 16 18 19 19 17 14 12 13 13 11 11 10 11 13 13 12 10 9 8 8 9 9 10 10 10 10 11 12 11 9 10 11 11 13 12 10 14 17 16 15 15 15 13 12 11 10 10 11 11 11 11 11 11 11 11
17 16 16 16 16 16 15 14 13 13 12 12 12 12 15 17 18 19 18 18 18 17 16 16 16 16 16 15 15 15 15 16 17 19 17 15 13 13 12 10 11 12 13 13 12 10 9 8 8 8 8 9 10 10 9 10 12 14 11 10 11 11 10 11 11 11 16 18 17 16 14 14 14 12 10 9 10 10 11 10 10 11 10 10 11
14 12 12 12 13 15 14 13 14 13 13 14 14 14 15 17 18 18 17 17 17 16 15 15 15 15 15 15 15 15 15 15 16 17 17 17 15 13 12 10 12 14 14 13 10 9 8 8 9 10 9 10 11 11 11 13 15 15 13 12 11 11 11 11 12 13 16 15 13 13 11 11 12 11 9 8 9 9 9 7 8 10 10 9 9
11 10 10 9 10 14 14 12 13 13 14 15 16 16 15 16 17 17 17 16 15 15 14 13 14 14 14 15 15 15 14 14 15 15 15 17 16 15 13 11 13 16 15 13 10 8 8 9 11 12 12 12 12 12 14 16 17 15 13 12 12 10 9 9 10 10 11 11 10 10 9 8 8 9 10 8 8 9 7 7 9 10 9 8 8
10 10 11 9 10 14 14 12 14 14 15 17 17 17 16 15 16 16 16 15 14 14 13 13 13 13 13 14 14 14 14 14 13 13 14 15 15 16 14 12 15 17 15 13 10 9 9 9 11 12 13 13 13 13 14 16 17 15 13 12 10 8 7 4 7 7 11 12 10 9 7 6 8 10 10 9 8 9 8 8 10 9 8 7 6
9 10 10 9 12 13 12 12 14 15 15 18 17 17 16 15 15 15 14 14 13 13 13 14 13 13 13 13 14 13 13 13 13 12 13 15 15 15 14 14 17 18 15 13 11 10 9 10 11 12 13 12 13 13 13 14 15 14 12 10 8 7 5 3 6 11 15 13 9 8 6 6 9 10 10 10 9 9 9 8 9 8 8 7 5
10 10 8 8 10 10 10 10 13 14 13 14 16 16 14 12 12 12 12 12 12 13 13 13 13 13 14 13 13 12 13 13 12 11 11 14 15 14 14 16 19 18 16 14 12 10 10 10 10 11 12 12 12 11 12 11 11 11 10 9 8 7 5 7 9 11 11 8 7 6 4 5 9 12 10 10 9 8 8 8 8 8 8 7 5
12 12 11 9 9 10 10 11 13 14 12 12 12 14 13 11 11 10 11 11 12 12 12 13 14 13 14 14 13 13 13 12 12 12 11 13 14 15 13 15 19 18 16 14 12 11 10 10 10 11 11 11 10 9 8 7 6 5 5 6 6 6 8 10 9 9 6 6 6 4 3 5 10 13 11 10 9 8 8 9 8 7 7 7 5
12 13 14 10 9 9 10 12 14 14 13 12 10 9 9 10 10 9 10 10 11 12 12 13 14 14 15 13 12 13 13 13 14 14 12 12 15 16 14 15 19 18 16 14 12 11 11 11 10 10 10 9 9 10 9 8 6 3 2 3 5 6 7 7 5 7 7 6 5 2 3 6 10 13 12 11 9 8 9 9 8 6 7 7 5
11 14 14 11 9 8 9 12 13 12 12 12 11 9 8 9 7 6 8 9 11 12 13 15 15 16 16 14 13 14 14 15 16 15 12 12 14 16 15 16 18 17 16 13 10 10 11 12 10 6 7 8 7 9 9 9 7 5 4 3 5 5 5 4 3 8 8 4 3 2 3 7 11 13 12 11 9 9 10 9 8 6 7 8 6
12 13 13 11 10 9 10 12 11 10 11 12 11 10 9 9 6 5 6 8 11 13 13 14 14 14 15 15 15 15 16 16 16 16 14 13 13 14 15 16 16 16 15 12 10 11 10 12 11 5 5 7 6 7 8 8 7 7 7 5 5 3 1 3 3 8 7 4 5 3 2 7 12 13 12 12 9 9 10 9 9 7 6 7 6
12 11 11 12 11 11 10 11 11 8 10 12 10 9 7 6 5 6 6 7 9 12 13 13 12 13 14 14 15 14 15 16 16 16 15 15 14 14 16 16 15 15 15 13 12 12 12 11 10 7 6 6 5 6 6 6 5 6 8 6 5 2 2 2 2 7 7 4 6 4 2 6 12 14 12 12 10 10 10 9 8 8 6 5 6
13 11 10 11 11 12 10 8 8 6 8 9 8 8 5 1 3 7 8 8 12 12 11 13 13 13 13 12 13 14 15 15 16 15 15 15 13 14 16 15 15 15 14 14 13 12 12 8 8 6 5 4 4 5 5 5 4 5 8 7 6 5 3 2 2 6 6 4 6 4 2 5 11 14 12 11 11 11 10 9 8 8 7 5 6
11 12 11 12 11 12 12 8 6 6 6 6 6 6 2 2 4 6 8 8 14 14 9 9 11 10 10 11 11 12 13 13 14 14 14 14 12 13 14 14 16 17 14 13 13 11 9 7 6 6 6 5 5 5 4 5 5 5 8 8 7 7 5 4 3 6 6 5 4 4 3 3 10 13 12 11 12 12 11 10 9 9 9 6 8
13 14 12 12 11 11 11 9 8 8 6 4 4 4 3 3 1 4 5 7 12 11 7 8 9 10 7 7 9 10 10 10 11 12 12 12 12 13 12 13 14 16 15 14 14 11 9 8 7 6 6 6 6 7 5 5 6 7 7 8 7 7 7 6 5 6 6 2 0 2 3 3 6 11 13 12 12 12 12 11 10 10 10 7 9
18 18 16 14 13 13 11 10 10 9 7 5 5 3 3 3 2 3 3 6 10 8 3 8 8 10 10 4 4 6 7 8 9 9 10 11 11 13 11 11 12 13 13 12 12 11 9 9 8 6 5 5 6 7 7 6 8 9 9 8 6 7 8 7 6 7 7 4 2 3 3 3 4 7 10 13 14 13 13 12 11 11 11 9 10
18 19 18 17 16 15 13 12 10 9 8 7 6 5 3 2 2 2 3 3 7 5 3 6 7 6 7 6 4 5 7 6 9 8 10 11 11 12 11 10 11 12 12 11 11 10 8 8 6 6 5 4 4 5 6 6 7 7 9 10 8 8 9 9 7 7 7 6 5 5 4 3 4 5 7 11 14 14 14 14 13 12 12 10 10
16 17 18 18 17 15 13 12 10 8 8 7 6 5 3 2 2 2 3 3 5 5 3 6 6 4 4 7 6 5 9 6 7 8 9 10 10 12 11 10 11 12 13 12 11 9 7 7 5 5 5 4 5 4 4 5 5 4 6 8 9 8 8 9 9 9 8 7 8 8 6 5 5 5 6 9 11 14 14 15 15 13 14 13 12
15 16 17 17 16 14 13 13 10 7 7 6 5 4 4 4 4 4 5 2 2 7 4 5 6 2 2 4 6 4 6 5 7 9 9 10 11 11 11 12 11 9 10 9 9 8 7 6 5 4 5 5 4 4 3 3 4 3 5 4 6 7 6 7 8 9 9 9 10 10 9 8 8 7 6 7 8 10 12 14 15 15 15 15 14
14 15 17 16 16 14 12 13 13 11 9 7 6 5 5 6 6 6 6 4 4 8 6 3 6 3 2 5 8 6 7 7 7 8 8 8 9 10 9 11 9 5 5 6 5 6 6 4 3 2 3 3 2 2 1 3 2 0 3 4 5 6 6 7 7 7 9 9 10 11 11 11 11 10 8 8 7 7 9 10 12 13 14 15 16
14 16 15 16 19 16 12 11 13 13 10 7 6 6 6 7 9 9 9 9 9 9 7 5 6 6 5 7 9 9 9 7 6 7 8 8 6 6 7 7 5 4 4 5 2 3 5 4 2 1 1 3 4 4 3 2 1 2 2 4 5 5 5 6 6 6 7 8 9 11 11 11 12 11 11 12 11 8 8 8 9 10 11 13 14
15 17 16 16 18 16 11 9 11 11 10 8 6 6 6 7 9 11 12 11 11 10 9 7 7 8 8 9 10 9 10 8 7 8 7 7 5 3 5 5 4 6 6 6 2 2 3 3 3 2 1 2 4 4 2 1 3 3 2 3 3 4 5 4 3 4 6 8 9 10 11 12 12 12 13 13 13 12 10 8 8 9 10 11 11
15 17 18 16 15 15 13 11 11 11 11 10 9 8 7 8 9 10 11 12 13 11 11 10 9 9 9 10 10 9 10 10 10 9 7 9 6 2 3 4 4 5 6 7 3 1 3 2 2 2 3 2 2 3 1 1 2 3 3 4 4 5 5 4 4 6 7 6 7 8 10 11 12 12 13 13 13 12 12 11 10 10 10 11 11
16 17 19 17 16 16 14 13 11 10 10 11 11 10 10 11 11 10 11 13 14 13 12 12 10 9 9 10 10 10 10 11 12 12 8 8 7 2 4 5 4 4 5 6 3 0 3 3 2 2 3 3 3 2 1 2 3 3 5 6 6 6 6 6 6 8 8 7 7 7 8 10 12 13 13 13 14 13 14 14 13 12 12 11 12
16 18 19 20 19 18 15 14 13 11 12 12 13 13 13 13 12 12 13 14 15 15 14 14 11 10 9 10 11 11 11 12 12 13 12 10 9 6 6 6 6 4 3 4 3 3 3 3 3 2 3 4 5 3 2 3 4 4 5 6 7 8 8 9 10 10 9 9 9 8 7 9 9 10 12 13 13 14 14 15 15 14 13 12 12
17 20 21 23 23 20 17 15 14 14 15 15 15 15 15 14 13 14 15 14 14 14 15 14 12 11 10 10 11 11 11 12 12 13 14 14 13 10 7 6 6 5 5 5 4 4 4 4 5 4 5 5 4 2 2 2 2 3 3 5 7 8 8 9 10 8 8 9 10 9 9 9 7 8 12 12 12 13 14 15 17 15 14 14 15
20 23 22 23 24 23 21 18 16 16 17 17 16 16 16 15 14 13 13 13 12 13 14 13 11 11 11 11 12 12 12 12 12 13 14 15 15 13 10 8 7 7 8 8 7 6 7 7 6 6 6 4 3 3 3 3 2 0 1 2 3 4 4 5 5 7 8 9 9 10 11 11 9 9 11 12 12 13 13 15 18 17 16 18 18
21 24 24 23 23 24 24 21 18 17 17 18 18 18 15 14 14 12 11 12 11 12 13 13 11 11 12 13 13 13 14 13 13 14 16 17 16 14 13 11 10 10 10 11 9 8 9 9 8 7 6 4 4 4 5 6 5 4 1 1 2 2 2 1 1 4 7 7 8 8 9 10 10 10 11 12 12 13 14 14 16 16 18 19 18
23 26 27 27 26 25 23 21 19 18 18 18 18 18 16 14 14 12 11 10 10 12 14 14 13 13 14 14 14 13 14 14 16 18 18 17 17 15 14 13 13 13 13 12 11 10 10 10 10 9 7 6 5 4 7 8 8 8 5 3 2 1 1 2 2 3 4 6 7 7 7 7 8 9 11 13 13 13 13 13 13 14 16 16 15
25 28 29 29 28 24 22 21 19 18 18 17 17 18 17 16 15 12 11 11 11 14 17 16 15 15 15 14 13 13 14 16 18 21 19 16 17 16 15 14 14 15 16 14 13 13 14 13 13 12 11 10 9 8 10 10 10 10 9 8 7 4 1 2 2 2 3 4 6 7 7 6 7 9 11 12 12 12 11 11 12 13 14 14 15
28 27 28 28 27 24 22 21 20 19 19 17 16 18 18 17 16 13 13 15 15 16 18 17 16 16 15 15 15 16 20 21 18 20 20 17 17 17 16 16 15 16 16 16 16 15 15 15 16 16 15 13 14 13 13 12 11 10 10 11 12 10 6 3 2 0 2 3 4 6 7 7 8 9 11 13 12 11 11 12 12 14 15 15 17
29 26 25 26 26 24 23 22 21 20 19 18 18 19 19 18 18 16 14 17 18 17 16 15 16 16 16 18 19 20 26 26 20 20 21 18 17 17 17 16 16 16 17 17 16 14 14 16 17 16 15 15 16 16 15 13 13 12 11 12 13 12 9 7 5 3 1 2 3 4 6 7 9 10 12 13 13 14 13 13 14 16 16 15 17
28 27 25 24 24 25 23 22 22 20 19 19 19 21 21 19 19 18 16 16 17 17 16 15 16 17 17 18 18 19 22 23 21 21 21 18 17 17 16 16 17 18 17 15 14 14 15 16 17 17 17 17 17 17 16 16 15 13 11 11 11 10 9 8 8 7 4 2 2 3 5 6 8 12 15 14 14 15 15 14 15 17 16 15 15
26 28 27 23 23 23 23 22 21 20 19 19 20 20 21 20 19 19 18 17 17 16 15 15 17 18 18 18 18 18 18 18 19 19 18 17 16 15 15 16 17 17 17 15 13 14 16 16 17 17 17 17 16 16 16 16 15 14 12 11 10 10 8 7 9 9 7 5 4 5 7 7 7 11 15 16 17 17 16 15 14 15 15 14 13
24 25 25 23 23 23 23 23 22 21 20 20 20 20 21 22 21 19 19 18 17 16 16 16 17 18 18 18 19 18 17 17 18 17 17 16 15 16 16 16 16 17 17 16 15 15 17 17 16 15 15 14 15 15 16 16 15 15 14 13 13 11 10 8 8 9 7 5 5 5 8 9 9 11 13 16 17 17 18 17 15 14 12 10 10
Wind_Direction
143 141 150 155 153 151 145 135 127 124 124 125 128 129 129 128 128 127 126 125 119 119 120 118 115 115 112 108 104 98 96 97 99 101 103 106 109 109 106 103 99 98 97 98 97 95 93 95 100 99 97 96 94 95 93 91 91 91 91 88 82 80 83 90 94 95 92 88 86 81 75 74 74 72 72 72 74 75 77 78 75 74 71 68 69
144 142 146 152 154 153 146 136 130 127 127 126 127 129 131 130 129 129 128 125 122 124 122 120 119 117 114 110 106 101 102 103 104 104 105 106 106 105 103 101 100 101 101 100 98 97 99 101 103 98 96 96 95 95 94 91 91 90 89 90 87 85 89 93 96 95 89 85 85 82 76 73 72 71 71 71 71 73 75 76 76 75 73 71 71
139 140 143 148 154 156 148 137 132 130 130 128 130 132 133 131 131 131 129 127 126 126 124 123 121 119 116 111 108 106 107 107 107 106 105 103 101 102 103 104 105 106 102 99 100 102 103 101 99 98 97 96 97 97 96 94 91 90 89 91 91 91 95 100 102 97 87 82 83 83 79 71 68 70 73 72 70 70 73 75 75 75 75 75 77
140 142 145 149 156 161 153 141 135 133 133 131 132 133 134 133 134 133 129 129 128 128 127 124 121 118 114 113 112 110 110 109 110 109 106 103 103 105 106 107 106 103 101 105 105 105 102 99 99 97 96 95 98 98 98 99 99 99 92 92 97 102 103 106 109 102 91 85 84 84 79 72 70 71 73 75 72 71 75 74 73 75 77 77 79
144 145 148 147 153 162 157 146 140 138 137 135 132 132 135 137 138 135 131 131 130 129 126 123 121 117 114 116 115 111 111 111 112 111 111 110 110 109 106 104 102 105 109 111 108 105 103 100 99 96 96 97 99 99 101 102 104 104 96 100 107 112 111 113 117 115 104 89 81 82 79 76 72 70 72 76 76 75 76 74 75 78 78 77 81
141 144 147 144 147 157 156 148 143 140 139 136 134 135 138 141 141 136 134 132 131 129 125 123 120 119 117 115 115 115 116 116 114 113 117 115 111 109 107 105 109 118 117 113 110 107 105 102 101 100 100 101 103 103 104 104 104 104 106 111 112 112 111 116 120 128 120 84 75 82 81 79 74 71 71 75 79 79 79 79 81 83 82 81 83
143 145 146 144 146 155 155 148 141 140 139 137 138 141 143 145 144 138 136 134 133 130 127 125 122 123 120 117 119 119 119 117 115 115 116 113 112 112 111 115 122 123 117 115 114 110 107 105 102 100 99 98 99 100 103 104 103 107 112 116 114 111 108 114 120 138 137 18 82 90 83 83 78 74 71 73 78 81 82 80 81 82 81 79 78
150 149 146 145 149 155 151 143 139 140 139 139 142 145 148 148 146 141 139 136 135 132 127 126 126 125 122 123 125 122 118 114 113 112 113 114 114 115 120 126 124 119 120 121 115 112 111 106 101 98 95 92 92 94 96 98 102 110 116 117 114 111 103 101 90 87 66 52 93 93 84 86 80 77 72 73 79 85 86 82 82 82 80 80 80
150 148 142 144 150 148 143 142 141 143 142 143 145 147 149 148 147 144 142 138 134 130 127 129 128 124 124 126 125 122 117 113 112 112 114 115 115 121 129 126 119 120 122 121 116 116 114 106 101 99 96 92 90 88 89 96 106 115 119 117 113 110 99 88 69 63 74 84 95 93 88 87 79 76 74 77 83 88 89 85 84 82 81 82 81
142 143 139 143 148 144 141 145 143 146 148 147 146 149 150 150 149 145 141 138 137 135 133 132 127 124 125 125 125 124 121 117 117 117 117 115 120 129 127 119 118 122 121 119 118 117 115 109 104 101 97 92 90 87 87 98 112 118 120 118 114 108 92 79 72 73 89 95 95 92 91 87 81 77 75 85 87 85 86 86 86 83 81 81 82
140 140 139 144 148 145 144 145 143 146 148 147 148 150 152 155 154 151 148 147 148 144 139 133 127 126 123 120 123 128 127 124 123 122 120 119 128 130 121 121 120 121 121 120 117 114 113 110 107 104 99 95 91 86 85 99 115 119 119 116 105 91 73 65 69 84 101 99 91 88 88 85 84 81 78 86 88 84 84 86 89 87 83 83 85
145 141 144 150 149 147 146 144 142 144 145 144 147 150 151 153 153 153 154 155 151 144 138 132 129 128 121 118 122 131 131 127 128 128 124 123 131 128 121 123 120 118 118 115 113 113 115 112 110 107 103 98 93 88 84 99 117 120 116 108 97 86 76 72 76 93 101 99 97 94 91 86 84 87 86 86 88 87 85 88 91 90 91 93 87
146 143 147 151 148 147 146 142 141 143 144 141 144 148 148 148 151 152 154 156 150 142 137 134 134 131 125 121 124 133 135 133 131 132 130 126 133 130 122 123 120 118 116 115 117 117 117 114 110 107 105 101 97 92 85 99 118 121 117 109 104 94 85 80 79 95 98 98 101 97 95 92 88 93 93 86 87 90 87 88 91 91 100 107 93
146 145 144 147 146 146 144 141 141 141 141 139 144 147 147 151 153 152 153 157 150 144 142 139 138 133 129 125 126 131 135 138 135 137 139 132 135 132 126 126 123 121 120 122 124 122 119 114 111 108 105 104 100 95 89 100 119 125 125 121 111 95 91 85 77 97 100 98 101 100 100 97 94 96 94 87 88 94 92 90 91 90 98 115 106
146 148 143 144 143 143 142 139 139 140 140 141 145 145 150 154 152 151 153 156 150 146 146 141 139 137 133 129 128 131 135 138 136 138 141 142 145 138 133 132 130 126 124 128 127 125 121 115 113 109 107 107 103 100 96 103 123 133 132 125 114 100 90 77 77 101 106 103 107 108 104 101 102 97 91 91 92 94 93 92 92 90 98 110 109
143 147 145 145 142 142 140 138 141 142 144 146 145 143 152 153 150 152 151 153 150 148 148 142 141 141 138 134 132 135 138 139 139 138 139 148 153 143 138 138 138 131 130 135 133 128 124 119 115 112 112 110 107 106 102 109 129 138 136 127 112 96 78 67 74 97 112 115 115 111 105 108 113 107 98 96 94 94 95 97 93 94 101 103 102
137 144 147 148 143 141 138 138 141 141 144 147 144 142 150 151 148 150 151 154 154 151 148 145 146 145 142 139 136 138 142 144 146 146 145 148 148 146 141 142 147 139 137 139 134 130 126 126 124 123 119 115 114 113 108 110 129 140 135 121 102 92 80 78 84 97 114 116 114 111 108 112 112 110 110 101 95 98 99 98 95 98 105 102 99
136 140 142 146 142 138 140 140 138 140 142 140 142 144 148 151 148 148 153 156 156 152 148 149 151 150 148 143 140 140 144 148 152 154 154 149 147 151 147 150 154 145 143 142 135 130 129 133 138 139 130 126 122 116 111 109 129 139 127 112 104 98 90 92 102 111 114 115 118 117 113 115 111 109 118 114 106 105 105 101 99 101 105 104 100
133 134 135 139 140 134 134 138 136 140 140 137 140 145 149 150 149 150 154 157 157 155 152 155 156 155 152 146 144 143 144 148 155 160 160 158 155 154 157 162 155 148 149 143 136 131 130 134 142 146 138 136 129 116 108 111 127 130 120 115 110 107 103 103 110 113 116 121 126 124 115 116 117 115 123 126 122 119 112 107 110 110 107 106 104
123 135 136 122 137 139 134 140 141 141 138 140 143 146 152 150 150 152 154 158 159 159 158 161 161 159 155 150 148 146 146 147 155 163 167 169 164 159 166 169 154 152 152 145 140 135 130 132 141 145 143 141 133 121 114 116 122 122 118 111 108 108 100 105 111 111 127 136 131 121 115 123 126 124 131 131 128 133 127 113 116 118 114 111 110
119 134 133 120 146 150 141 140 140 145 143 143 147 148 153 152 152 154 158 163 163 162 161 164 165 163 162 157 152 151 150 148 153 161 167 170 168 169 175 169 157 156 154 148 143 136 134 137 142 146 148 146 137 128 125 125 123 124 124 111 105 90 61 94 119 120 139 142 131 119 117 131 127 124 137 138 129 134 131 118 118 119 116 117 118
118 122 120 131 153 149 141 134 130 143 148 143 145 149 152 153 154 156 160 165 165 167 166 167 170 168 169 166 159 158 157 152 154 156 160 165 167 173 177 167 160 159 156 152 147 139 138 139 145 151 152 149 141 133 132 134 133 133 130 117 104 75 57 122 124 134 145 145 138 127 124 135 133 132 142 145 140 141 139 132 130 128 123 119 124
119 120 114 131 148 143 142 138 126 132 142 142 144 148 151 155 158 161 166 170 172 174 174 173 178 178 175 176 170 166 166 164 163 159 159 165 167 168 170 165 162 163 160 154 151 143 140 142 148 154 156 152 144 139 135 134 139 139 131 122 111 98 119 126 115 130 147 156 153 139 140 157 154 148 150 153 151 152 156 151 147 146 140 129 126
118 125 127 137 148 148 149 145 141 135 134 139 143 148 155 162 164 172 178 181 183 181 183 183 184 186 183 185 180 174 176 173 166 163 162 165 167 168 170 167 166 168 164 159 156 150 145 145 150 156 159 158 156 165 161 147 153 155 138 131 131 138 147 137 129 136 147 164 160 151 166 180 168 157 158 163 160 159 161 158 158 158 152 146 148
125 124 127 144 152 152 155 154 158 151 143 143 144 156 170 169 164 179 189 189 192 192 195 195 191 192 195 194 184 181 185 179 170 166 165 167 170 171 173 172 173 173 168 162 159 157 156 155 157 162 167 170 176 186 187 183 193 209 207 184 173 187 187 171 149 153 166 171 161 153 169 172 165 159 164 166 166 168 164 164 165 157 151 156 170
140 126 125 151 155 139 147 156 166 159 150 149 149 161 172 169 160 173 192 198 203 207 207 204 199 196 202 202 191 187 186 182 175 170 170 172 173 174 177 177 178 179 173 165 168 173 176 180 174 163 179 193 192 186 189 195 195 181 174 176 181 209 216 183 148 168 181 180 165 133 146 169 162 158 166 169 171 173 168 170 171 163 157 163 178
149 131 124 146 151 127 129 146 157 156 151 149 149 155 163 176 188 191 210 219 216 218 214 210 208 201 203 201 194 190 187 186 179 175 177 177 176 175 176 178 181 185 178 171 185 192 196 199 188 171 179 190 193 184 184 196 193 171 167 161 178 219 144 129 142 174 179 171 163 127 133 177 165 160 168 173 177 176 172 175 179 177 166 163 177
143 132 123 136 143 127 128 141 141 146 155 154 151 154 164 189 219 231 254 268 244 228 213 215 216 207 210 201 192 191 188 186 184 184 182 181 184 176 174 178 183 189 185 181 193 203 211 205 186 182 175 170 182 178 169 189 192 159 160 160 171 182 118 131 136 163 176 174 154 125 145 181 167 166 173 178 182 181 179 185 187 188 185 166 170
139 132 127 135 140 131 130 134 131 141 157 158 156 160 167 202 267 240 241 277 281 264 230 217 210 209 215 202 193 194 192 188 189 194 187 185 194 187 181 181 183 191 193 192 197 211 221 202 174 181 179 175 188 175 153 172 185 148 158 166 168 162 144 176 140 149 168 163 139 111 118 178 171 170 179 185 186 189 191 192 192 195 200 187 176
141 132 135 138 141 140 135 133 139 151 150 142 149 154 116 4 297 236 219 260 284 284 273 241 219 224 223 200 201 201 199 197 194 200 192 188 197 191 187 187 187 190 194 197 197 208 216 192 184 190 182 189 195 190 164 157 179 179 175 172 170 168 156 171 154 135 142 143 133 106 97 167 174 173 182 193 193 196 202 202 204 203 206 204 186
143 133 134 134 138 142 141 148 162 164 156 144 150 147 70 32 303 196 212 260 268 264 287 294 250 257 269 211 210 207 204 206 198 202 196 190 194 192 191 192 190 186 188 196 195 198 200 195 204 202 193 196 186 189 180 167 189 193 181 173 170 167 157 169 169 147 147 154 183 139 130 151 175 179 185 195 201 206 207 208 213 209 212 212 196
148 144 138 139 146 148 156 170 173 172 170 168 163 140 77 53 123 172 253 272 263 244 270 308 259 259 292 272 224 218 222 217 205 204 196 192 194 196 197 192 188 185 188 194 194 193 195 202 209 203 206 211 189 184 183 189 205 198 176 171 174 170 167 174 175 170 169 180 247 227 178 154 178 194 197 198 199 207 211 211 213 208 214 214 200
150 146 142 147 156 157 166 175 173 174 176 176 167 145 114 84 135 216 291 294 278 241 217 287 244 228 267 247 227 269 295 257 216 213 200 198 196 201 205 192 187 187 190 192 190 191 196 205 211 203 201 214 211 188 184 202 218 211 182 169 175 183 181 177 176 181 176 171 197 227 225 189 180 193 210 209 202 204 209 213 216 213 216 216 207
150 146 146 151 159 158 162 170 171 175 180 175 170 167 159 162 166 228 279 309 282 233 240 287 235 199 243 225 207 263 302 283 233 234 209 202 200 204 207 194 188 186 189 186 181 187 197 201 204 207 199 211 230 202 192 209 212 234 209 169 170 190 189 182 181 181 180 179 186 204 224 224 212 200 204 212 211 209 207 211 217 219 220 220 218
152 154 157 157 162 163 168 171 167 176 191 177 170 190 183 186 205 231 258 305 256 228 268 293 229 223 327 221 191 217 262 252 261 259 224 212 204 203 206 204 199 186 182 169 168 186 193 197 199 211 213 217 233 205 173 194 194 230 236 179 171 192 194 197 193 180 182 187 186 193 203 212 226 232 216 206 208 211 212 213 215 219 221 222 224
160 166 167 165 171 177 185 179 170 175 189 181 171 191 194 198 212 229 245 251 237 242 266 259 219 243 276 206 193 199 223 233 259 262 258 246 211 203 210 208 202 190 170 139 156 201 198 202 198 197 232 241 275 263 203 189 184 223 222 206 202 209 205 203 199 189 187 186 190 194 195 203 217 228 230 225 220 212 214 215 217 220 221 222 225
169 177 175 175 181 186 193 186 181 183 186 187 175 186 203 208 211 219 230 235 241 252 261 243 223 236 236 208 200 199 209 230 242 245 278 281 242 229 215 188 170 183 170 137 136 243 213 217 208 154 291 320 337 320 295 230 267 350 255 241 230 232 233 210 197 199 195 190 196 197 196 201 206 212 219 229 239 235 219 212 217 222 222 225 225
175 182 181 179 183 188 198 198 199 201 199 205 194 189 207 217 218 220 221 224 231 239 242 236 223 228 228 215 209 199 203 227 234 232 256 253 257 277 212 162 139 186 178 157 145 315 242 222 205 205 254 324 345 345 328 287 324 317 291 289 251 261 270 233 217 227 219 211 207 201 200 201 202 206 209 218 234 241 236 223 216 220 222 225 226
183 186 188 187 188 192 202 207 210 213 209 212 206 194 203 216 222 224 223 221 220 224 226 225 222 225 227 221 215 201 200 213 223 237 251 237 246 319 204 186 164 190 189 178 165 350 288 254 200 234 240 255 319 345 329 240 313 323 313 301 259 279 282 241 245 253 247 244 231 218 208 203 205 210 210 213 220 229 238 236 228 226 225 226 227
188 187 191 192 193 192 195 200 203 205 200 201 202 196 199 210 215 219 224 222 217 216 219 222 224 225 228 224 213 202 201 206 217 233 244 240 250 249 184 189 179 184 195 188 167 110 293 273 227 245 250 250 256 277 283 248 296 317 304 291 256 264 272 257 258 253 257 267 261 254 234 221 216 211 212 216 216 219 229 238 238 235 236 234 229
191 186 190 192 192 192 192 197 198 199 197 195 198 199 200 204 206 211 218 220 215 215 217 220 220 216 218 216 207 201 200 206 218 229 229 230 243 230 186 183 187 182 192 197 182 193 259 252 215 214 238 252 252 264 295 280 321 334 309 303 286 277 272 266 263 257 263 261 254 257 248 238 230 220 221 222 220 217 221 234 239 240 241 239 235
203 198 198 200 202 202 200 200 198 199 201 201 202 203 205 205 205 210 216 217 215 217 218 219 218 207 197 201 210 209 200 203 215 225 226 227 234 232 213 200 199 187 180 190 192 194 215 209 189 191 211 236 250 266 280 271 347 6 341 326 308 297 282 265 258 254 261 257 252 251 242 240 244 237 232 229 225 221 222 231 235 238 237 235 240
207 212 211 210 213 216 216 212 205 205 206 205 206 206 209 208 206 209 213 219 222 221 221 220 219 207 194 196 208 210 204 203 208 215 220 223 228 228 221 210 203 196 188 190 195 196 202 198 191 203 211 224 247 244 233 231 236 234 45 350 307 317 295 257 244 249 260 258 257 257 246 238 237 236 233 231 229 226 225 228 231 233 229 228 236
202 216 220 218 220 222 222 220 214 213 210 209 210 209 210 207 207 213 220 229 232 227 225 220 214 208 202 203 203 199 202 205 206 212 216 215 215 216 212 204 195 196 195 195 199 199 204 202 201 213 215 214 239 249 227 216 220 221 146 170 263 297 271 236 227 254 263 257 252 256 254 246 240 237 233 231 232 232 229 225 230 234 233 231 232
201 211 221 222 222 221 221 221 217 212 210 212 213 211 209 204 202 207 215 228 229 221 221 218 208 205 207 210 207 198 198 205 206 208 210 208 206 204 204 201 195 194 197 198 200 204 207 204 203 212 215 206 215 243 233 223 223 220 205 201 233 246 246 354 329 263 263 256 245 251 262 261 245 237 237 235 232 233 232 234 238 235 233 233 228
213 211 219 224 224 221 220 218 212 208 211 212 211 210 209 205 200 197 203 214 218 215 215 212 205 206 211 213 209 199 195 203 206 201 201 204 203 201 202 205 201 196 194 194 196 201 204 206 210 214 215 206 195 209 224 227 233 229 219 224 240 238 222 336 316 288 308 287 258 249 252 252 245 248 250 241 232 234 241 246 245 237 234 233 230
223 218 219 224 222 219 219 213 206 205 209 210 208 210 208 206 205 204 210 215 219 220 215 210 207 209 214 211 203 192 189 198 207 202 200 203 201 200 203 204 203 199 195 193 193 196 200 204 211 215 216 210 198 202 214 217 224 232 231 234 242 241 231 237 239 264 316 301 280 258 249 246 249 259 256 245 240 239 241 242 239 241 243 239 238
221 221 217 220 218 217 218 212 206 204 205 207 211 212 207 204 207 210 216 220 224 227 220 214 214 213 211 206 197 189 188 192 199 200 199 202 199 200 201 196 198 201 200 196 192 190 194 200 208 212 213 212 207 208 211 211 214 222 227 233 244 245 237 232 231 230 241 291 301 286 272 260 248 249 249 244 242 237 241 244 239 244 248 243 248
209 212 210 212 212 214 216 211 209 206 204 208 212 212 207 205 208 210 215 220 224 229 226 221 217 211 208 204 198 194 193 193 195 196 198 200 200 201 200 195 196 198 200 202 193 186 190 197 203 206 205 207 212 215 213 211 216 219 218 225 239 244 240 238 234 228 218 229 278 291 278 259 240 245 248 245 241 240 247 251 246 247 247 246 256
203 206 207 208 208 209 211 210 210 209 206 207 208 209 209 208 209 210 215 218 220 223 223 220 214 208 207 206 203 202 202 202 203 202 200 201 203 203 200 199 199 197 200 207 203 192 194 199 201 204 207 204 205 212 214 214 219 221 217 218 226 228 229 235 224 216 213 213 234 265 269 256 248 257 256 250 248 248 251 251 249 251 250 253 263
202 202 203 206 206 204 205 207 209 210 210 209 208 208 209 210 212 214 216 216 215 215 214 212 207 205 206 207 209 209 208 209 210 209 206 205 208 206 201 202 203 202 203 207 208 202 200 202 202 204 210 210 207 209 214 219 223 226 225 220 223 224 229 236 218 204 206 212 225 256 267 259 254 260 263 262 258 253 253 252 249 255 262 268 267